SIA217 WSSS-YMML

Flight info

Callsign SIA217
Flight time N/A
Altitude 35000
Route ANITO7A ANITO B470 PKP L895 SAPDA A585 DOMOM/N0490F370 A585 PD T21 CARTS/N0484F390 T21 LEC H119 ARBEY
Aircraft B77W/H-SDE1E2E3FGHIJ4J5M1P2RWXYZ/LB1D1

Departure

Time N/A
Airport Singapore Changi Airport (WSSS)

Arrival

Time 2026-04-30 12:31
Airport Melbourne Airport (YMML)
Time Latitude Longitude Altitude Speed Heading
2026-04-30 11:40 -33.23916 141.25536 39288 ft 512 kts 139°
2026-04-30 11:40 -33.26557 141.28470 39292 ft 512 kts 139°
2026-04-30 11:40 -33.31766 141.34261 39288 ft 511 kts 139°
2026-04-30 11:41 -33.36991 141.40082 39287 ft 511 kts 139°
2026-04-30 11:41 -33.42206 141.45900 39296 ft 510 kts 139°
2026-04-30 11:42 -33.47412 141.51720 39291 ft 510 kts 139°
2026-04-30 11:42 -33.52622 141.57552 39296 ft 510 kts 139°
2026-04-30 11:43 -33.57782 141.63339 39305 ft 510 kts 139°
2026-04-30 11:43 -33.62993 141.69194 39296 ft 511 kts 139°
2026-04-30 11:44 -33.68174 141.75026 39299 ft 510 kts 139°
2026-04-30 11:44 -33.73353 141.80864 39304 ft 509 kts 139°
2026-04-30 11:45 -33.78489 141.86665 39303 ft 509 kts 139°
2026-04-30 11:45 -33.83692 141.92551 39303 ft 515 kts 139°
2026-04-30 11:46 -33.88895 141.98447 39301 ft 516 kts 138°
2026-04-30 11:46 -33.94135 142.04398 39298 ft 518 kts 139°
2026-04-30 11:47 -33.99353 142.10333 39316 ft 516 kts 139°
2026-04-30 11:47 -34.04577 142.16284 39321 ft 516 kts 139°
2026-04-30 11:48 -34.09790 142.22235 39327 ft 516 kts 139°
2026-04-30 11:48 -34.15005 142.28198 39305 ft 515 kts 139°
2026-04-30 11:49 -34.20256 142.34213 39301 ft 514 kts 139°
2026-04-30 11:49 -34.25438 142.40160 39323 ft 516 kts 139°
2026-04-30 11:50 -34.30648 142.46149 39335 ft 513 kts 139°
2026-04-30 11:50 -34.35811 142.52095 39332 ft 514 kts 139°
2026-04-30 11:51 -34.40978 142.58057 39323 ft 512 kts 139°
2026-04-30 11:51 -34.46107 142.63985 39354 ft 513 kts 139°
2026-04-30 11:52 -34.51299 142.69998 39329 ft 511 kts 139°
2026-04-30 11:52 -34.56450 142.75972 39323 ft 511 kts 139°
2026-04-30 11:53 -34.61602 142.81959 39341 ft 511 kts 139°
2026-04-30 11:53 -34.66714 142.87911 39330 ft 510 kts 139°
2026-04-30 11:54 -34.71855 142.93906 39333 ft 510 kts 139°
2026-04-30 11:54 -34.76947 142.99857 39299 ft 509 kts 139°
2026-04-30 11:55 -34.82057 143.05838 39320 ft 507 kts 139°
2026-04-30 11:55 -34.87174 143.11838 39337 ft 508 kts 139°
2026-04-30 11:56 -34.92252 143.17804 39354 ft 507 kts 139°
2026-04-30 11:56 -34.97406 143.23584 39321 ft 502 kts 146°
2026-04-30 11:57 -35.03291 143.28174 39332 ft 501 kts 152°
2026-04-30 11:57 -35.09236 143.32610 39331 ft 499 kts 152°
2026-04-30 11:58 -35.15162 143.37056 39348 ft 500 kts 152°
2026-04-30 11:58 -35.21101 143.41531 39330 ft 500 kts 152°
2026-04-30 11:59 -35.27035 143.46016 39344 ft 500 kts 152°
2026-04-30 11:59 -35.32950 143.50499 39332 ft 499 kts 152°
2026-04-30 12:00 -35.38901 143.55017 39344 ft 499 kts 152°
2026-04-30 12:00 -35.44816 143.59518 39360 ft 498 kts 152°
2026-04-30 12:01 -35.50702 143.64004 39346 ft 498 kts 152°
2026-04-30 12:01 -35.56603 143.68512 39348 ft 498 kts 151°
2026-04-30 12:02 -35.62516 143.73036 39345 ft 497 kts 151°
2026-04-30 12:02 -35.68403 143.77548 39343 ft 498 kts 151°
2026-04-30 12:03 -35.77243 143.84340 39332 ft 497 kts 151°
2026-04-30 12:04 -35.83050 143.88811 38326 ft 494 kts 151°
2026-04-30 12:04 -35.85994 143.91080 37246 ft 496 kts 150°
2026-04-30 12:04 -35.88897 143.93320 36469 ft 494 kts 150°
2026-04-30 12:04 -35.91845 143.95596 36070 ft 492 kts 150°
2026-04-30 12:05 -35.94738 143.97832 35118 ft 494 kts 150°
2026-04-30 12:05 -35.97628 144.00069 34605 ft 487 kts 150°
2026-04-30 12:05 -36.00490 144.02286 34154 ft 480 kts 150°
2026-04-30 12:05 -36.03301 144.04465 33674 ft 473 kts 150°
2026-04-30 12:06 -36.06062 144.06607 33173 ft 468 kts 150°
2026-04-30 12:06 -36.08826 144.08752 32653 ft 463 kts 150°
2026-04-30 12:06 -36.11558 144.10875 32139 ft 466 kts 149°
2026-04-30 12:06 -36.14337 144.13034 31606 ft 475 kts 149°
2026-04-30 12:07 -36.17158 144.15230 31068 ft 473 kts 149°
2026-04-30 12:07 -36.19911 144.17374 30546 ft 470 kts 149°
2026-04-30 12:07 -36.22664 144.19521 30025 ft 465 kts 149°
2026-04-30 12:07 -36.25380 144.21640 29510 ft 460 kts 149°
2026-04-30 12:08 -36.28093 144.23759 28994 ft 456 kts 149°
2026-04-30 12:08 -36.30786 144.25864 28482 ft 453 kts 149°
2026-04-30 12:08 -36.33417 144.27922 27976 ft 450 kts 148°
2026-04-30 12:08 -36.36044 144.29977 27460 ft 447 kts 148°
2026-04-30 12:09 -36.38672 144.32037 26927 ft 444 kts 148°
2026-04-30 12:09 -36.41300 144.34097 26395 ft 440 kts 148°
2026-04-30 12:09 -36.43876 144.36119 25882 ft 438 kts 148°
2026-04-30 12:09 -36.46431 144.38126 25360 ft 435 kts 148°
2026-04-30 12:10 -36.49004 144.40147 24825 ft 432 kts 148°
2026-04-30 12:10 -36.51510 144.42119 24322 ft 428 kts 148°
2026-04-30 12:10 -36.54030 144.44102 23813 ft 425 kts 147°
2026-04-30 12:10 -36.56533 144.46074 23300 ft 422 kts 147°
2026-04-30 12:11 -36.58986 144.48009 22793 ft 419 kts 147°
2026-04-30 12:11 -36.61455 144.49956 22281 ft 416 kts 147°
2026-04-30 12:11 -36.63883 144.51874 21773 ft 414 kts 147°
2026-04-30 12:11 -36.66295 144.53780 21261 ft 412 kts 147°
2026-04-30 12:12 -36.68716 144.55695 20735 ft 410 kts 147°
2026-04-30 12:12 -36.71140 144.57613 20204 ft 408 kts 147°
2026-04-30 12:12 -36.73515 144.59494 19692 ft 406 kts 147°
2026-04-30 12:12 -36.75894 144.61380 19159 ft 404 kts 147°
2026-04-30 12:13 -36.78290 144.63237 18629 ft 402 kts 152°
2026-04-30 12:13 -36.80824 144.64624 18103 ft 399 kts 163°
2026-04-30 12:13 -36.83535 144.65471 17583 ft 396 kts 169°
2026-04-30 12:13 -36.86234 144.66154 17081 ft 394 kts 169°
2026-04-30 12:14 -36.88913 144.66812 16560 ft 393 kts 169°
2026-04-30 12:14 -36.91589 144.67448 16019 ft 391 kts 169°
2026-04-30 12:14 -36.94277 144.68076 15490 ft 389 kts 169°
2026-04-30 12:14 -36.96926 144.68686 14964 ft 388 kts 169°
2026-04-30 12:15 -36.99598 144.69296 14441 ft 386 kts 169°
2026-04-30 12:15 -37.02218 144.69888 13921 ft 384 kts 169°
2026-04-30 12:15 -37.04871 144.70487 13251 ft 386 kts 169°
2026-04-30 12:15 -37.07501 144.71075 12592 ft 388 kts 169°
2026-04-30 12:16 -37.10146 144.71668 12032 ft 386 kts 169°
2026-04-30 12:16 -37.12800 144.72261 11505 ft 382 kts 169°
2026-04-30 12:16 -37.15438 144.72850 10983 ft 379 kts 169°
2026-04-30 12:16 -37.18015 144.73439 10478 ft 375 kts 168°
2026-04-30 12:17 -37.22935 144.74760 10300 ft 344 kts 167°
2026-04-30 12:17 -37.25237 144.75383 10191 ft 331 kts 167°
2026-04-30 12:17 -37.27461 144.75983 10068 ft 320 kts 167°
2026-04-30 12:18 -37.29608 144.76559 9787 ft 316 kts 167°
2026-04-30 12:18 -37.31757 144.77135 9636 ft 307 kts 167°
2026-04-30 12:18 -37.33857 144.77692 9096 ft 313 kts 169°
2026-04-30 12:18 -37.35984 144.78079 8930 ft 303 kts 172°
2026-04-30 12:19 -37.38069 144.78413 8658 ft 299 kts 172°
2026-04-30 12:19 -37.40139 144.78760 8383 ft 294 kts 172°
2026-04-30 12:19 -37.42133 144.79105 8168 ft 288 kts 172°
2026-04-30 12:19 -37.44127 144.79454 7973 ft 284 kts 172°
2026-04-30 12:20 -37.46092 144.79549 7774 ft 282 kts 190°
2026-04-30 12:20 -37.47980 144.78926 7595 ft 281 kts 200°
2026-04-30 12:20 -37.49819 144.78107 7411 ft 280 kts 201°
2026-04-30 12:20 -37.51664 144.77243 7216 ft 279 kts 202°
2026-04-30 12:21 -37.53478 144.76386 7016 ft 277 kts 202°
2026-04-30 12:21 -37.55286 144.75529 6836 ft 276 kts 202°
2026-04-30 12:21 -37.57085 144.74677 6659 ft 275 kts 202°
2026-04-30 12:21 -37.58903 144.73944 6463 ft 274 kts 191°
2026-04-30 12:22 -37.60815 144.73685 6288 ft 274 kts 184°
2026-04-30 12:22 -37.62732 144.73546 6105 ft 274 kts 184°
2026-04-30 12:22 -37.64633 144.73416 5915 ft 274 kts 184°
2026-04-30 12:22 -37.66523 144.73285 5724 ft 272 kts 184°
2026-04-30 12:23 -37.68412 144.73151 5539 ft 272 kts 184°
2026-04-30 12:23 -37.70314 144.73015 5360 ft 272 kts 184°
2026-04-30 12:23 -37.72205 144.72934 5178 ft 270 kts 181°
2026-04-30 12:23 -37.74065 144.72928 5001 ft 264 kts 180°
2026-04-30 12:24 -37.75884 144.72914 4836 ft 257 kts 181°
2026-04-30 12:24 -37.77653 144.72893 4655 ft 250 kts 181°
2026-04-30 12:24 -37.79389 144.72870 4481 ft 244 kts 180°
2026-04-30 12:24 -37.81036 144.73253 4287 ft 237 kts 154°
2026-04-30 12:25 -37.82302 144.74484 4108 ft 227 kts 129°
2026-04-30 12:25 -37.83228 144.76068 3958 ft 219 kts 121°
2026-04-30 12:25 -37.83994 144.77701 3800 ft 211 kts 109°
2026-04-30 12:25 -37.84272 144.79451 3669 ft 198 kts 84°
2026-04-30 12:26 -37.84114 144.81154 3574 ft 192 kts 78°
2026-04-30 12:26 -37.83919 144.82800 3464 ft 190 kts 77°
2026-04-30 12:26 -37.83694 144.84451 3328 ft 188 kts 67°
2026-04-30 12:26 -37.82961 144.85738 3201 ft 180 kts 33°
2026-04-30 12:27 -37.81811 144.86295 3005 ft 178 kts
2026-04-30 12:27 -37.80574 144.86298 2735 ft 178 kts 355°
2026-04-30 12:27 -37.79346 144.86114 2485 ft 176 kts 352°
2026-04-30 12:27 -37.78170 144.85895 2242 ft 162 kts 352°
2026-04-30 12:28 -37.77098 144.85693 2036 ft 151 kts 352°
2026-04-30 12:28 -37.76086 144.85503 1846 ft 140 kts 352°
2026-04-30 12:28 -37.75144 144.85326 1670 ft 136 kts 352°
2026-04-30 12:28 -37.74212 144.85152 1489 ft 136 kts 352°
2026-04-30 12:29 -37.73268 144.84976 1308 ft 136 kts 352°
2026-04-30 12:29 -37.72322 144.84799 1116 ft 137 kts 352°
2026-04-30 12:29 -37.71384 144.84624 930 ft 136 kts 352°
2026-04-30 12:29 -37.70437 144.84448 755 ft 137 kts 352°
2026-04-30 12:30 -37.69501 144.84270 589 ft 136 kts 353°
2026-04-30 12:30 -37.68554 144.84096 404 ft 137 kts 353°
2026-04-30 12:30 -37.67661 144.83933 375 ft 109 kts 351°
2026-04-30 12:30 -37.67055 144.83818 395 ft 71 kts 352°
2026-04-30 12:31 -37.66697 144.83751 409 ft 36 kts 351°
2026-04-30 12:31 -37.66555 144.83765 415 ft 17 kts 37°
2026-04-30 12:31 -37.66514 144.83847 415 ft 0 kts 80°
2026-04-30 12:32 -37.66513 144.83855 415 ft 3 kts 81°
2026-04-30 12:32 -37.66512 144.83929 412 ft 13 kts 94°
2026-04-30 12:32 -37.66532 144.84078 404 ft 18 kts 114°
2026-04-30 12:32 -37.66631 144.84161 396 ft 17 kts 169°
2026-04-30 12:33 -37.66742 144.84184 394 ft 8 kts 172°
2026-04-30 12:33 -37.66774 144.84224 394 ft 7 kts 88°
2026-04-30 12:33 -37.66766 144.84285 392 ft 5 kts 82°
2026-04-30 12:33 -37.66764 144.84312 391 ft 0 kts 82°
2026-04-30 12:34 -37.66763 144.84314 391 ft 0 kts 82°